Helicity
79 57 45 -29 -22 56 84 -7 65 93 140 118 114 152 182 224 155 214 251 275 267 307 276 232 214 196 235 257 230 172 181 210 152 181 172 154 161 136 114 127 153 140 121 83
146 71 42 -16 -41 -45 48 -58 1 58 167 226 232 300 400 236 226 166 194 248 181 180 172 199 298 318 306 311 304 267 274 255 201 164 187 169 154 132 132 142 145 132 96 89
51 -15 19 45 -8 -55 -16 92 64 -29 -22 -58 174 258 289 290 359 386 294 229 336 130 197 285 241 250 309 344 298 264 284 191 161 200 179 165 147 137 155 159 128 117 97 84
114 59 103 90 69 59 33 48 50 25 25 -90 -21 -14 62 238 291 408 415 251 152 242 236 248 306 316 360 371 382 381 219 192 182 202 212 184 169 170 174 147 119 108 115 85
180 204 161 61 61 83 70 42 23 55 30 52 18 27 -56 -44 38 71 88 119 130 191 276 395 506 464 506 500 400 284 248 195 250 219 216 198 180 165 164 156 143 116 92 82
248 188 130 65 86 86 60 14 59 45 9 -0 48 15 23 37 -13 -62 -36 32 117 289 417 461 529 571 518 482 369 286 249 205 238 229 211 196 179 172 151 146 138 113 115 66
268 205 176 133 73 71 70 23 36 38 51 52 27 43 48 44 34 -1 -12 57 160 425 533 535 515 447 443 378 293 275 253 242 259 211 212 201 180 169 142 146 137 135 114 97
174 191 158 101 89 76 31 31 38 36 44 45 35 50 46 56 84 111 111 146 229 355 395 381 359 372 394 327 316 304 256 263 244 237 217 180 203 155 150 127 113 113 109 129
156 189 101 39 25 53 47 27 13 3 54 92 81 60 60 59 79 99 118 149 190 250 281 257 265 307 340 345 340 293 290 261 251 227 190 184 192 171 138 91 91 79 90 102
183 111 63 43 71 32 10 18 23 31 34 80 105 98 90 87 87 100 121 151 144 177 207 241 250 267 333 343 249 276 268 236 223 182 183 187 176 141 104 83 75 78 77 86
176 105 107 71 55 27 23 54 48 71 62 67 84 74 89 129 90 98 119 131 138 166 194 224 246 262 271 315 291 274 272 245 214 197 200 179 153 114 93 63 64 69 56 63
156 98 112 80 69 64 66 73 53 93 91 73 86 80 91 76 79 106 134 145 151 160 201 238 265 283 282 291 270 301 281 256 229 238 229 203 170 138 88 70 60 65 60 57
82 59 61 92 75 78 89 59 73 99 123 115 109 93 73 65 87 101 117 145 156 167 208 251 278 284 262 261 263 272 278 255 237 233 220 195 188 176 143 98 72 63 61 66
78 81 87 90 73 101 101 126 135 144 154 143 131 123 79 70 92 106 109 144 175 199 207 221 257 272 275 287 283 288 245 212 247 242 234 220 195 150 132 118 94 112 96 79
53 55 69 98 130 166 175 129 138 131 137 138 114 87 64 81 100 115 137 158 179 201 223 240 265 284 292 290 276 243 227 233 270 287 238 211 169 130 130 115 103 110 117 117
95 119 146 151 152 149 129 89 107 107 122 110 77 11 24 87 110 127 146 169 188 174 192 214 221 216 218 241 229 215 210 253 231 230 218 179 130 106 121 112 101 81 84 118
129 191 139 98 63 59 60 88 107 92 93 79 58 41 82 83 103 116 128 134 146 159 175 194 191 165 172 192 189 179 179 174 207 216 182 130 114 102 117 110 91 83 76 96
101 85 68 51 83 96 105 90 81 100 80 82 78 71 81 84 89 101 112 137 164 188 178 166 165 154 153 135 134 140 161 162 163 172 142 119 101 114 117 108 99 101 108 101
69 67 59 64 71 82 73 69 79 92 104 93 93 77 65 82 94 102 117 128 136 146 128 148 162 169 140 122 129 136 137 146 162 149 116 119 131 122 124 116 118 124 129 131
128 92 79 107 119 82 77 70 87 104 101 105 100 91 83 75 89 98 104 108 97 94 140 152 170 160 147 142 158 133 148 178 177 135 123 135 140 128 113 118 128 140 145 134
105 94 111 137 121 111 88 81 91 72 44 53 77 66 68 64 82 95 99 92 60 94 142 173 186 180 163 148 131 145 175 181 150 132 130 122 123 121 119 120 121 136 137 130
98 90 119 97 104 116 100 71 55 49 61 73 80 87 92 79 84 92 72 65 57 94 132 158 160 183 176 165 146 168 162 166 161 142 128 126 122 116 110 117 121 125 129 129
118 111 98 85 80 86 91 78 67 56 55 68 80 77 79 73 78 106 92 64 81 88 119 134 145 154 164 164 161 178 159 164 157 136 119 120 108 108 114 114 117 120 123 131
100 96 83 59 53 65 97 74 71 68 75 79 79 77 89 97 91 68 71 82 83 89 103 107 119 136 122 129 177 193 178 156 138 127 115 105 99 102 103 111 120 121 125 135
66 57 52 41 57 69 77 75 83 82 86 85 71 64 65 69 54 56 77 74 86 97 94 94 106 124 137 142 139 164 164 158 145 131 119 112 106 113 122 124 119 123 131 146
46 46 48 58 56 62 65 61 62 57 68 73 66 59 65 64 68 80 83 94 98 102 102 98 107 114 131 142 142 145 152 154 148 138 132 134 131 120 116 118 131 137 145 152
54 60 67 70 66 65 63 65 62 43 43 53 55 36 53 64 76 87 97 99 99 100 105 109 110 120 122 121 124 121 120 122 124 118 105 102 104 108 116 120 123 138 145 138
Wind_Speed
76 70 75 83 82 88 89 86 96 97 101 106 92 81 76 67 58 49 43 37 35 34 32 29 27 22 19 18 15 13 12 17 17 17 20 25 30 32 34 36 39 39 40 41
78 73 76 91 91 86 89 88 79 84 92 76 72 71 66 61 51 49 50 40 40 36 34 32 30 26 21 16 14 14 9 8 9 11 19 25 26 28 32 35 36 36 37 37
83 69 72 89 84 70 69 65 68 79 69 64 74 78 74 67 58 58 53 41 35 40 37 33 30 21 17 12 9 8 3 3 3 7 16 21 22 25 28 31 32 34 35 34
73 64 77 71 55 59 68 74 63 66 67 64 59 52 65 66 63 64 55 42 39 36 36 32 26 23 16 11 7 12 7 3 2 8 17 18 20 22 24 27 30 32 33 33
65 62 67 78 71 60 58 71 67 68 66 71 68 58 64 61 58 60 48 45 42 36 42 36 31 21 19 17 14 6 6 6 9 10 14 15 16 18 20 24 27 29 30 31
54 60 70 60 48 39 45 74 42 39 48 53 41 56 58 48 53 56 53 59 52 44 37 30 25 19 20 16 14 10 6 5 12 13 14 11 10 13 19 22 24 25 27 30
56 59 64 40 34 38 52 55 33 41 48 46 51 53 51 47 45 48 49 49 32 23 22 19 19 17 17 14 12 7 5 5 10 13 10 6 9 13 16 19 21 22 24 27
61 54 63 26 25 23 25 28 34 37 42 43 45 47 47 43 42 41 36 30 16 9 8 9 11 14 15 15 11 7 6 9 10 5 3 4 8 11 15 16 17 19 19 24
39 41 37 27 15 19 27 30 34 44 45 33 34 41 43 43 37 33 31 26 19 11 9 8 9 11 13 11 9 6 2 3 1 1 2 3 6 9 13 14 15 15 17 20
31 35 32 29 32 36 39 40 40 42 45 37 35 36 39 38 35 36 32 27 19 11 8 7 6 6 8 9 11 3 3 1 3 5 6 2 5 7 9 11 12 14 15 17
42 37 37 39 36 38 42 37 47 47 40 43 42 34 32 32 32 31 27 24 18 12 10 8 5 5 8 10 9 2 1 2 3 3 1 1 3 3 6 9 12 12 13 16
41 38 29 33 33 37 38 43 49 46 46 40 41 36 31 31 29 30 28 22 18 13 7 5 3 5 6 7 6 4 4 5 5 6 4 6 3 7 7 10 12 13 14 16
39 38 32 28 37 39 41 49 48 46 44 42 39 36 33 29 26 23 21 18 15 11 9 6 5 6 5 6 6 4 6 7 7 9 7 6 3 3 5 10 8 12 16 18
29 32 39 37 39 38 43 49 50 47 41 38 36 32 31 32 29 23 19 15 11 9 9 7 4 5 4 5 5 6 6 6 9 9 9 8 6 4 5 4 7 14 18 20
38 36 37 43 45 48 47 44 42 37 34 30 28 32 34 33 26 22 18 13 11 13 13 10 8 6 4 5 5 5 6 7 8 9 9 7 7 6 6 6 8 13 18 20
28 35 43 48 47 41 36 32 30 26 21 22 25 31 32 28 22 19 16 11 8 9 10 11 10 5 4 4 3 3 6 6 7 7 7 8 8 7 8 10 11 14 17 15
35 37 35 33 29 25 19 26 25 18 20 18 24 25 27 24 21 20 19 17 14 10 7 5 4 1 1 3 3 3 4 4 5 7 8 7 8 9 11 13 15 18 17 16
29 24 27 36 25 19 23 24 22 18 18 18 19 21 23 20 20 19 18 18 16 14 9 5 5 3 2 1 1 1 1 2 4 5 6 8 9 10 13 16 18 20 22 20
14 25 33 21 18 19 20 19 19 18 18 19 22 25 25 24 21 19 18 17 15 10 9 6 4 4 3 1 2 3 2 2 3 5 5 8 10 13 14 15 17 18 18 19
23 24 20 21 23 22 21 21 19 20 22 23 23 24 25 25 24 23 21 20 19 19 12 6 4 5 7 5 5 5 4 3 5 6 7 10 11 13 15 16 18 18 18 20
18 18 20 23 24 25 23 21 20 21 22 23 25 25 27 29 30 29 28 27 26 23 16 8 10 11 11 9 9 7 4 4 6 8 9 11 13 16 18 20 20 19 18 20
19 19 22 22 23 23 23 21 22 23 23 24 24 25 26 26 26 27 27 25 25 24 22 18 17 5 12 13 13 10 9 10 12 11 10 11 13 15 17 17 18 19 19 19
19 19 19 20 20 20 20 21 22 22 23 24 24 24 23 23 23 23 23 25 24 23 22 21 20 18 10 16 16 14 13 12 11 11 13 14 15 15 15 16 19 19 20 21
17 17 18 18 18 19 19 21 22 22 23 24 24 22 23 23 24 25 26 23 23 23 22 21 20 20 20 13 12 12 12 13 14 15 16 16 16 15 16 18 19 21 22 22
17 17 16 15 17 18 18 19 21 23 23 24 24 23 24 23 24 22 23 23 23 23 22 21 20 19 18 18 14 12 14 14 15 15 15 16 15 16 17 18 20 21 24 26
15 15 15 17 16 16 18 19 20 20 21 22 23 23 24 25 26 24 24 23 23 22 21 19 17 16 14 13 11 11 11 15 18 19 20 18 18 20 20 21 22 24 24 25
15 15 15 17 17 16 17 18 19 18 19 20 21 22 23 24 25 24 24 23 22 21 21 18 16 14 14 13 13 13 13 14 14 15 16 17 17 18 19 20 22 24 26 27
Wind_Direction
288 287 290 290 291 296 293 294 289 297 286 283 285 286 284 286 285 275 267 264 247 234 230 230 231 231 246 255 253 264 290 304 311 328 338 339 344 351 360 3 2 2 5 9
288 286 288 290 288 292 294 292 292 297 301 294 289 289 291 281 280 277 270 261 252 238 223 228 234 239 242 234 248 271 294 294 320 334 331 335 348 356 358 2 5 9 9 13
290 295 295 291 290 290 294 298 298 298 301 307 296 286 283 280 278 275 277 269 254 246 239 237 230 232 238 220 239 260 287 75 73 347 329 342 352 358 4 6 10 11 12 18
291 296 288 299 301 294 294 292 294 302 304 302 303 302 288 285 282 281 278 271 261 253 249 245 238 237 213 207 231 277 257 163 299 325 323 340 348 355 6 13 8 10 15 14
286 287 294 299 298 293 296 295 295 297 300 295 295 298 294 289 288 285 282 275 275 267 258 253 239 224 224 234 239 232 203 193 305 313 325 333 347 360 11 15 12 15 17 19
280 285 292 303 316 324 320 297 330 330 314 311 315 301 298 300 291 290 295 282 277 269 259 248 235 227 231 233 241 247 240 251 291 310 316 334 14 16 13 18 18 20 15 10
267 281 293 303 310 330 305 311 343 338 330 326 309 308 313 319 310 302 299 295 292 268 254 240 237 230 220 224 231 234 245 284 304 308 319 5 24 29 22 23 25 13 14 5
266 280 287 310 321 306 346 2 353 351 344 334 327 326 323 325 320 317 318 320 326 300 255 234 213 213 225 237 243 241 263 291 299 320 347 17 38 27 21 27 20 8 4 2
273 282 302 311 307 334 344 347 344 337 340 342 338 330 329 325 327 328 325 326 321 305 285 266 232 225 224 228 199 195 262 297 299 107 101 57 40 17 16 23 10 7 354 357
285 284 285 288 304 314 324 329 337 338 336 340 340 338 335 333 329 324 322 320 323 320 300 274 252 227 212 182 163 160 307 343 127 142 129 19 1 19 20 19 9 350 351 357
279 290 288 292 307 314 315 331 326 331 341 332 330 339 345 336 331 324 324 323 321 317 307 296 263 222 182 167 171 215 245 197 218 195 64 324 346 32 30 5 345 340 344 352
282 285 291 302 317 318 321 326 324 329 327 335 327 333 339 335 329 319 313 314 313 315 316 301 243 203 202 184 187 201 240 256 236 257 281 299 351 9 24 341 331 328 337 340
282 292 302 314 313 313 317 317 323 323 321 321 326 327 330 336 327 328 325 320 307 310 310 289 256 242 211 188 188 222 258 254 256 261 270 280 318 356 3 332 332 321 324 331
302 307 305 307 313 315 315 319 320 319 322 322 323 329 329 325 323 325 321 318 315 314 307 294 275 259 224 215 237 268 269 253 252 260 267 281 293 305 314 313 298 308 316 323
302 304 312 314 313 313 315 316 318 320 325 330 330 327 320 319 324 327 327 324 320 307 303 295 291 282 246 234 246 253 263 263 254 261 271 277 285 289 296 299 293 302 308 319
329 323 320 318 319 322 321 322 324 326 341 338 329 327 333 332 337 338 338 336 323 310 305 301 296 271 211 210 190 252 275 249 243 254 260 267 274 275 282 286 289 296 302 310
319 323 329 337 346 349 3 338 340 352 340 347 339 348 346 350 349 342 334 330 328 331 332 329 331 118 205 220 248 279 277 243 238 253 252 256 263 267 278 281 285 292 301 308
318 333 331 325 335 357 350 349 353 0 355 354 6 8 4 4 357 352 345 342 343 342 351 22 50 59 47 119 307 276 304 262 243 248 259 263 268 276 281 284 287 291 299 308
323 313 316 346 15 11 21 22 17 9 8 14 7 357 358 358 1 7 5 355 351 357 350 9 64 42 23 6 311 302 316 293 283 284 277 276 281 286 287 290 293 296 302 309
290 315 2 16 7 13 18 24 18 10 3 3 10 20 29 35 41 39 29 13 355 341 352 360 357 333 320 312 296 309 311 286 290 298 295 291 289 290 294 298 302 303 305 311
343 359 2 2 6 7 15 20 26 24 30 43 52 55 62 67 68 68 65 59 57 70 75 26 325 314 308 308 308 313 307 299 301 299 297 295 295 297 299 301 305 308 310 314
353 2 8 22 22 19 12 21 33 37 43 37 36 54 57 56 53 41 38 50 57 64 75 82 104 349 305 303 306 307 305 303 305 306 304 304 303 304 304 308 311 314 315 319
351 5 18 25 26 27 16 2 359 26 46 48 53 59 56 58 60 56 51 44 53 59 63 73 86 97 83 308 308 310 310 310 311 311 310 310 309 311 312 315 318 320 320 321
10 15 14 15 20 15 5 343 352 4 16 23 32 42 45 46 37 31 34 55 61 63 67 77 86 91 96 85 325 326 326 321 319 318 317 318 319 321 322 322 322 324 326 328
356 353 1 11 1 349 1 4 2 5 14 19 27 34 33 38 34 51 49 56 65 62 65 73 82 87 86 88 85 338 332 336 331 332 328 327 327 325 328 329 328 328 327 326
359 7 6 346 350 356 7 10 9 16 23 27 27 31 32 31 35 49 53 58 61 61 61 67 75 74 68 59 53 56 16 341 332 329 328 332 331 327 328 329 329 329 331 332
8 9 360 343 343 3 14 13 18 31 38 40 36 39 37 35 39 44 49 54 57 55 53 55 58 58 46 39 32 20 9 6 3 355 349 345 343 342 340 338 337 336 336 336